DIRECTV 14

Last updated on Fri Dec 19 2025 00:02:51 GMT+0000 (Coordinated Universal Time)

1 40333U 14078B 25352.60560826 -.00000101 00000+0 00000+0 0 9994 2 40333 0.0177 334.0753 0000563 186.0561 46.1403 1.00272625 40238
UTC large
Height (km)
Speed (km/s)
/
Latitude / Longitude
Inclination (degrees)
Orbital Period (minutes)
Azimuth
Elevation
Range (km)
Doppler Factor

Next 0 passes for location: London (51.5072 / 0.1276)

Sorry there are no passes over London.